QPF
0.00 0.00 0.00 0.00 0.00 0.00 0.00 0.00 0.00 0.00 0.00 0.00 0.00 0.00 0.00 0.00 0.00 0.00 0.00 0.00 0.00 0.00 0.00 0.00 0.00 0.00 0.00 0.00 0.00 0.00 0.00 0.00 0.00 0.00 0.00 0.00 0.00 0.00 0.00 0.00 0.00 0.00 0.00 0.00 0.00 0.00 0.00 0.00 0.00 0.00 0.00 0.00 0.00 0.00 0.00 0.00 0.00 0.00 0.00 0.00 0.00 0.00 0.00 0.00 0.00 0.00 0.00 0.00 0.00
0.00 0.00 0.00 0.00 0.00 0.00 0.00 0.00 0.00 0.00 0.00 0.00 0.00 0.00 0.00 0.00 0.00 0.00 0.00 0.00 0.00 0.00 0.00 0.00 0.00 0.00 0.00 0.00 0.00 0.00 0.00 0.00 0.00 0.00 0.00 0.00 0.00 0.00 0.00 0.00 0.00 0.00 0.00 0.00 0.00 0.00 0.00 0.00 0.00 0.00 0.00 0.00 0.00 0.00 0.00 0.00 0.00 0.00 0.00 0.00 0.00 0.00 0.00 0.00 0.00 0.00 0.00 0.00 0.00
0.00 0.00 0.00 0.00 0.00 0.00 0.00 0.00 0.00 0.00 0.00 0.00 0.00 0.00 0.00 0.00 0.00 0.00 0.00 0.00 0.00 0.00 0.00 0.00 0.00 0.00 0.00 0.00 0.00 0.00 0.00 0.00 0.00 0.00 0.00 0.00 0.00 0.00 0.00 0.00 0.00 0.00 0.00 0.00 0.00 0.00 0.00 0.00 0.00 0.00 0.00 0.00 0.00 0.00 0.00 0.00 0.00 0.00 0.00 0.00 0.00 0.00 0.00 0.00 0.00 0.00 0.00 0.00 0.00
0.00 0.00 0.00 0.00 0.00 0.00 0.00 0.00 0.00 0.00 0.00 0.00 0.00 0.00 0.00 0.00 0.00 0.00 0.00 0.00 0.00 0.00 0.00 0.00 0.00 0.00 0.00 0.00 0.00 0.00 0.00 0.00 0.00 0.00 0.00 0.00 0.00 0.00 0.00 0.00 0.00 0.00 0.00 0.00 0.00 0.00 0.00 0.00 0.00 0.00 0.00 0.00 0.00 0.00 0.00 0.00 0.00 0.00 0.00 0.00 0.00 0.00 0.00 0.00 0.00 0.00 0.00 0.00 0.00
0.00 0.00 0.00 0.00 0.00 0.00 0.00 0.00 0.00 0.00 0.00 0.00 0.00 0.00 0.00 0.00 0.00 0.00 0.00 0.00 0.00 0.00 0.00 0.00 0.00 0.00 0.00 0.00 0.00 0.00 0.00 0.00 0.00 0.00 0.00 0.00 0.00 0.00 0.00 0.00 0.00 0.00 0.00 0.00 0.00 0.00 0.00 0.00 0.00 0.00 0.00 0.00 0.00 0.00 0.00 0.00 0.00 0.00 0.00 0.00 0.00 0.00 0.00 0.00 0.00 0.00 0.00 0.00 0.00
0.00 0.00 0.00 0.00 0.00 0.00 0.00 0.00 0.00 0.00 0.00 0.00 0.00 0.00 0.00 0.00 0.00 0.00 0.00 0.00 0.00 0.00 0.00 0.00 0.00 0.00 0.00 0.00 0.00 0.00 0.00 0.00 0.00 0.00 0.00 0.00 0.00 0.00 0.00 0.00 0.00 0.00 0.00 0.00 0.00 0.00 0.00 0.00 0.00 0.00 0.00 0.00 0.00 0.00 0.00 0.00 0.00 0.00 0.00 0.00 0.00 0.00 0.00 0.00 0.00 0.00 0.00 0.00 0.00
0.00 0.00 0.00 0.00 0.00 0.00 0.00 0.00 0.00 0.00 0.00 0.00 0.00 0.00 0.00 0.00 0.00 0.00 0.00 0.00 0.00 0.00 0.00 0.00 0.00 0.00 0.00 0.00 0.00 0.00 0.00 0.00 0.00 0.00 0.00 0.00 0.00 0.00 0.00 0.00 0.00 0.00 0.00 0.00 0.00 0.00 0.00 0.00 0.00 0.00 0.00 0.00 0.00 0.00 0.00 0.00 0.00 0.00 0.00 0.00 0.00 0.00 0.00 0.00 0.00 0.00 0.00 0.00 0.00
0.00 0.00 0.00 0.00 0.00 0.00 0.00 0.00 0.00 0.00 0.00 0.00 0.00 0.00 0.00 0.00 0.00 0.00 0.00 0.00 0.00 0.00 0.00 0.00 0.00 0.00 0.00 0.00 0.00 0.00 0.00 0.00 0.00 0.00 0.00 0.00 0.00 0.00 0.00 0.00 0.00 0.00 0.00 0.00 0.00 0.00 0.00 0.00 0.00 0.00 0.00 0.00 0.00 0.00 0.00 0.00 0.00 0.00 0.00 0.00 0.00 0.00 0.00 0.00 0.00 0.00 0.00 0.00 0.00
0.00 0.00 0.00 0.00 0.00 0.00 0.00 0.00 0.00 0.00 0.00 0.00 0.00 0.00 0.00 0.00 0.00 0.00 0.00 0.00 0.00 0.00 0.00 0.00 0.00 0.00 0.00 0.00 0.00 0.00 0.00 0.00 0.00 0.00 0.00 0.00 0.00 0.00 0.00 0.00 0.00 0.00 0.00 0.00 0.00 0.00 0.00 0.00 0.00 0.00 0.00 0.00 0.00 0.00 0.00 0.00 0.00 0.00 0.00 0.00 0.00 0.00 0.00 0.00 0.00 0.00 0.00 0.00 0.00
0.00 0.00 0.00 0.00 0.00 0.00 0.00 0.00 0.00 0.00 0.00 0.00 0.00 0.00 0.00 0.00 0.00 0.00 0.00 0.00 0.00 0.00 0.00 0.00 0.00 0.00 0.00 0.00 0.00 0.00 0.00 0.00 0.00 0.00 0.00 0.00 0.00 0.00 0.00 0.00 0.00 0.00 0.00 0.00 0.00 0.00 0.00 0.00 0.00 0.00 0.00 0.00 0.00 0.00 0.00 0.00 0.00 0.00 0.00 0.00 0.00 0.00 0.00 0.00 0.00 0.00 0.00 0.00 0.00
0.00 0.00 0.00 0.00 0.00 0.00 0.00 0.00 0.00 0.00 0.00 0.00 0.00 0.00 0.00 0.00 0.00 0.00 0.00 0.00 0.00 0.00 0.00 0.00 0.00 0.00 0.00 0.00 0.00 0.00 0.00 0.00 0.00 0.00 0.00 0.00 0.00 0.00 0.00 0.00 0.00 0.00 0.00 0.00 0.00 0.00 0.00 0.00 0.00 0.00 0.00 0.00 0.00 0.00 0.00 0.00 0.00 0.00 0.00 0.00 0.00 0.00 0.00 0.00 0.00 0.00 0.00 0.00 0.00
0.00 0.00 0.00 0.00 0.00 0.00 0.00 0.00 0.00 0.00 0.00 0.00 0.00 0.00 0.00 0.00 0.00 0.00 0.00 0.00 0.00 0.00 0.00 0.00 0.00 0.00 0.00 0.00 0.00 0.00 0.00 0.00 0.00 0.00 0.00 0.00 0.00 0.00 0.00 0.00 0.00 0.00 0.00 0.00 0.00 0.00 0.00 0.00 0.00 0.00 0.00 0.00 0.00 0.00 0.00 0.00 0.00 0.00 0.00 0.00 0.00 0.00 0.00 0.00 0.00 0.00 0.00 0.00 0.00
0.00 0.00 0.00 0.00 0.00 0.00 0.00 0.00 0.00 0.00 0.00 0.00 0.00 0.00 0.00 0.00 0.00 0.00 0.00 0.00 0.00 0.00 0.00 0.00 0.00 0.00 0.00 0.00 0.00 0.00 0.00 0.00 0.00 0.00 0.00 0.00 0.00 0.00 0.00 0.00 0.00 0.00 0.00 0.00 0.00 0.00 0.00 0.00 0.00 0.00 0.00 0.00 0.00 0.00 0.00 0.00 0.00 0.00 0.00 0.00 0.00 0.00 0.00 0.00 0.00 0.00 0.00 0.00 0.00
0.00 0.00 0.00 0.00 0.00 0.00 0.00 0.00 0.00 0.00 0.00 0.00 0.00 0.00 0.00 0.00 0.00 0.00 0.00 0.00 0.00 0.00 0.00 0.00 0.00 0.00 0.00 0.00 0.00 0.00 0.00 0.00 0.00 0.00 0.00 0.00 0.00 0.00 0.00 0.00 0.00 0.00 0.00 0.00 0.00 0.00 0.00 0.00 0.00 0.00 0.00 0.00 0.00 0.00 0.00 0.00 0.00 0.00 0.00 0.00 0.00 0.00 0.00 0.00 0.00 0.00 0.00 0.00 0.00
0.00 0.00 0.00 0.00 0.00 0.00 0.00 0.00 0.00 0.00 0.00 0.00 0.00 0.00 0.00 0.00 0.00 0.00 0.00 0.00 0.00 0.00 0.00 0.00 0.00 0.00 0.00 0.00 0.00 0.00 0.00 0.00 0.00 0.00 0.00 0.00 0.00 0.00 0.00 0.00 0.00 0.00 0.00 0.00 0.00 0.00 0.00 0.00 0.00 0.00 0.00 0.00 0.00 0.00 0.00 0.00 0.00 0.00 0.00 0.00 0.00 0.00 0.00 0.00 0.00 0.00 0.00 0.00 0.00
0.00 0.00 0.00 0.00 0.00 0.00 0.00 0.00 0.00 0.00 0.00 0.00 0.00 0.00 0.00 0.00 0.00 0.00 0.00 0.00 0.00 0.00 0.00 0.00 0.00 0.00 0.00 0.00 0.00 0.00 0.00 0.00 0.00 0.00 0.00 0.00 0.00 0.00 0.00 0.00 0.00 0.00 0.00 0.00 0.00 0.00 0.00 0.00 0.00 0.00 0.00 0.00 0.00 0.00 0.00 0.00 0.00 0.00 0.00 0.00 0.00 0.00 0.00 0.00 0.00 0.00 0.00 0.00 0.00
0.00 0.00 0.00 0.00 0.00 0.00 0.00 0.00 0.00 0.00 0.00 0.00 0.00 0.00 0.00 0.00 0.00 0.00 0.00 0.00 0.00 0.00 0.00 0.00 0.00 0.00 0.00 0.00 0.00 0.00 0.00 0.00 0.00 0.00 0.00 0.00 0.00 0.00 0.00 0.00 0.00 0.00 0.00 0.00 0.00 0.00 0.00 0.00 0.00 0.00 0.00 0.00 0.00 0.00 0.00 0.00 0.00 0.00 0.00 0.00 0.00 0.00 0.00 0.00 0.00 0.00 0.00 0.00 0.00
0.00 0.00 0.00 0.00 0.00 0.00 0.00 0.00 0.00 0.00 0.00 0.00 0.00 0.00 0.00 0.00 0.00 0.00 0.00 0.00 0.00 0.00 0.00 0.00 0.00 0.00 0.00 0.00 0.00 0.00 0.00 0.00 0.00 0.00 0.00 0.00 0.00 0.00 0.00 0.00 0.00 0.00 0.00 0.00 0.00 0.00 0.00 0.00 0.00 0.00 0.00 0.00 0.00 0.00 0.00 0.00 0.00 0.00 0.00 0.00 0.00 0.00 0.00 0.00 0.00 0.00 0.00 0.00 0.00
0.00 0.00 0.00 0.00 0.00 0.00 0.00 0.00 0.00 0.00 0.00 0.00 0.00 0.00 0.00 0.00 0.00 0.00 0.00 0.00 0.00 0.00 0.00 0.00 0.00 0.00 0.00 0.00 0.00 0.00 0.00 0.00 0.00 0.00 0.00 0.00 0.00 0.00 0.00 0.00 0.00 0.00 0.00 0.00 0.00 0.00 0.00 0.00 0.00 0.00 0.00 0.00 0.00 0.00 0.00 0.00 0.00 0.00 0.00 0.00 0.00 0.00 0.00 0.00 0.00 0.00 0.00 0.00 0.00
0.00 0.00 0.00 0.00 0.00 0.00 0.00 0.00 0.00 0.00 0.00 0.00 0.00 0.00 0.00 0.00 0.00 0.00 0.00 0.00 0.00 0.00 0.00 0.00 0.00 0.00 0.00 0.00 0.00 0.00 0.00 0.00 0.00 0.00 0.00 0.00 0.00 0.00 0.00 0.00 0.00 0.00 0.00 0.00 0.00 0.00 0.00 0.00 0.00 0.00 0.00 0.00 0.00 0.00 0.00 0.00 0.00 0.00 0.00 0.00 0.00 0.00 0.00 0.00 0.00 0.00 0.00 0.00 0.00
0.00 0.00 0.00 0.00 0.00 0.00 0.00 0.00 0.00 0.00 0.00 0.00 0.00 0.00 0.00 0.00 0.00 0.00 0.00 0.00 0.00 0.00 0.00 0.00 0.00 0.00 0.00 0.00 0.00 0.00 0.00 0.00 0.00 0.00 0.00 0.00 0.00 0.00 0.00 0.00 0.00 0.00 0.00 0.00 0.00 0.00 0.00 0.00 0.00 0.00 0.00 0.00 0.00 0.00 0.00 0.00 0.00 0.00 0.00 0.00 0.00 0.00 0.00 0.00 0.00 0.00 0.00 0.00 0.00
0.00 0.00 0.00 0.00 0.00 0.00 0.00 0.00 0.00 0.00 0.00 0.00 0.00 0.00 0.00 0.00 0.00 0.00 0.00 0.00 0.00 0.00 0.00 0.00 0.00 0.00 0.00 0.00 0.00 0.00 0.00 0.00 0.00 0.00 0.00 0.00 0.00 0.00 0.00 0.00 0.00 0.00 0.00 0.00 0.00 0.00 0.00 0.00 0.00 0.00 0.00 0.00 0.00 0.00 0.00 0.00 0.00 0.00 0.00 0.00 0.00 0.00 0.00 0.00 0.00 0.00 0.00 0.00 0.00
0.00 0.00 0.00 0.00 0.00 0.00 0.00 0.00 0.00 0.00 0.00 0.00 0.00 0.00 0.00 0.00 0.00 0.00 0.00 0.00 0.00 0.00 0.00 0.00 0.00 0.00 0.00 0.00 0.00 0.00 0.00 0.00 0.00 0.00 0.00 0.00 0.00 0.00 0.00 0.00 0.00 0.00 0.00 0.00 0.00 0.00 0.00 0.00 0.00 0.00 0.00 0.00 0.00 0.00 0.00 0.00 0.00 0.00 0.00 0.00 0.00 0.00 0.00 0.00 0.00 0.00 0.00 0.00 0.00
0.00 0.00 0.00 0.00 0.00 0.00 0.00 0.00 0.00 0.00 0.00 0.00 0.00 0.00 0.00 0.00 0.00 0.00 0.00 0.00 0.00 0.00 0.00 0.00 0.00 0.00 0.00 0.00 0.00 0.00 0.00 0.00 0.00 0.00 0.00 0.00 0.00 0.00 0.00 0.00 0.00 0.00 0.00 0.00 0.00 0.00 0.00 0.00 0.00 0.00 0.00 0.00 0.00 0.00 0.00 0.00 0.00 0.00 0.00 0.00 0.00 0.00 0.00 0.00 0.00 0.00 0.00 0.00 0.00
0.00 0.00 0.00 0.00 0.00 0.00 0.00 0.00 0.00 0.00 0.00 0.00 0.00 0.00 0.00 0.00 0.00 0.00 0.00 0.00 0.00 0.00 0.00 0.00 0.00 0.00 0.00 0.00 0.00 0.00 0.00 0.00 0.00 0.00 0.00 0.00 0.00 0.00 0.00 0.00 0.00 0.00 0.00 0.00 0.00 0.00 0.00 0.00 0.00 0.00 0.00 0.00 0.00 0.00 0.00 0.00 0.00 0.00 0.00 0.00 0.00 0.00 0.00 0.00 0.00 0.00 0.00 0.00 0.00
0.00 0.00 0.00 0.00 0.00 0.00 0.00 0.00 0.00 0.00 0.00 0.00 0.00 0.00 0.00 0.00 0.00 0.00 0.00 0.00 0.00 0.00 0.00 0.00 0.00 0.00 0.00 0.00 0.00 0.00 0.00 0.00 0.00 0.00 0.00 0.00 0.00 0.00 0.00 0.00 0.00 0.00 0.00 0.00 0.00 0.00 0.00 0.00 0.00 0.00 0.00 0.00 0.00 0.00 0.00 0.00 0.00 0.00 0.00 0.00 0.00 0.00 0.00 0.00 0.00 0.00 0.00 0.00 0.00
0.00 0.00 0.00 0.00 0.00 0.00 0.00 0.00 0.00 0.00 0.00 0.00 0.00 0.00 0.00 0.00 0.00 0.00 0.00 0.00 0.00 0.00 0.00 0.00 0.00 0.00 0.00 0.00 0.00 0.00 0.00 0.00 0.00 0.00 0.00 0.00 0.00 0.00 0.00 0.00 0.00 0.00 0.00 0.00 0.00 0.00 0.00 0.00 0.00 0.00 0.00 0.00 0.00 0.00 0.00 0.00 0.00 0.00 0.00 0.00 0.00 0.00 0.00 0.00 0.00 0.00 0.00 0.00 0.00
0.00 0.00 0.00 0.00 0.00 0.00 0.00 0.00 0.00 0.00 0.00 0.00 0.00 0.00 0.00 0.00 0.00 0.00 0.00 0.00 0.00 0.00 0.00 0.00 0.00 0.00 0.00 0.00 0.00 0.00 0.00 0.00 0.00 0.00 0.00 0.00 0.00 0.00 0.00 0.00 0.00 0.00 0.00 0.00 0.00 0.00 0.00 0.00 0.00 0.00 0.00 0.00 0.00 0.00 0.00 0.00 0.00 0.00 0.00 0.00 0.00 0.00 0.00 0.00 0.00 0.00 0.00 0.00 0.00
0.00 0.00 0.00 0.00 0.00 0.00 0.00 0.00 0.00 0.00 0.00 0.00 0.00 0.00 0.00 0.00 0.00 0.00 0.00 0.00 0.00 0.00 0.00 0.00 0.00 0.00 0.00 0.00 0.00 0.00 0.00 0.00 0.00 0.00 0.00 0.00 0.00 0.00 0.00 0.00 0.00 0.00 0.00 0.00 0.00 0.00 0.00 0.00 0.00 0.00 0.00 0.00 0.00 0.00 0.00 0.00 0.00 0.00 0.00 0.00 0.00 0.00 0.00 0.00 0.00 0.00 0.00 0.00 0.00
0.00 0.00 0.00 0.00 0.00 0.00 0.00 0.00 0.00 0.00 0.00 0.00 0.00 0.00 0.00 0.00 0.00 0.00 0.00 0.00 0.00 0.00 0.00 0.00 0.00 0.00 0.00 0.00 0.00 0.00 0.00 0.00 0.00 0.00 0.00 0.00 0.00 0.00 0.00 0.00 0.00 0.00 0.00 0.00 0.00 0.00 0.00 0.00 0.00 0.00 0.00 0.00 0.00 0.00 0.00 0.00 0.00 0.00 0.00 0.00 0.00 0.00 0.00 0.00 0.00 0.00 0.00 0.00 0.00
0.00 0.00 0.00 0.01 0.00 0.00 0.00 0.00 0.00 0.00 0.00 0.00 0.00 0.00 0.00 0.00 0.00 0.00 0.00 0.00 0.00 0.00 0.00 0.00 0.00 0.00 0.00 0.00 0.00 0.00 0.00 0.00 0.00 0.00 0.00 0.00 0.00 0.00 0.00 0.00 0.00 0.00 0.00 0.00 0.00 0.00 0.00 0.00 0.00 0.00 0.00 0.00 0.00 0.00 0.00 0.00 0.00 0.00 0.00 0.00 0.00 0.00 0.00 0.00 0.00 0.00 0.00 0.00 0.00
0.00 0.00 0.00 0.01 0.01 0.01 0.00 0.00 0.00 0.00 0.00 0.00 0.00 0.00 0.00 0.00 0.00 0.00 0.00 0.00 0.00 0.00 0.00 0.00 0.00 0.00 0.00 0.00 0.00 0.00 0.00 0.00 0.00 0.00 0.00 0.00 0.00 0.00 0.00 0.00 0.00 0.00 0.00 0.00 0.00 0.00 0.00 0.00 0.00 0.00 0.00 0.00 0.00 0.00 0.00 0.00 0.00 0.00 0.00 0.00 0.00 0.00 0.00 0.00 0.00 0.00 0.00 0.00 0.00
0.00 0.00 0.00 0.00 0.01 0.01 0.00 0.00 0.00 0.00 0.00 0.00 0.00 0.00 0.00 0.00 0.00 0.00 0.00 0.00 0.00 0.00 0.00 0.00 0.00 0.00 0.00 0.00 0.00 0.00 0.00 0.00 0.00 0.00 0.00 0.00 0.00 0.00 0.00 0.00 0.00 0.00 0.00 0.00 0.00 0.00 0.00 0.00 0.00 0.00 0.00 0.00 0.00 0.00 0.00 0.00 0.00 0.00 0.00 0.00 0.00 0.00 0.00 0.00 0.00 0.00 0.00 0.00 0.00
0.00 0.00 0.00 0.00 0.00 0.00 0.00 0.00 0.00 0.00 0.00 0.00 0.00 0.00 0.00 0.00 0.00 0.00 0.00 0.00 0.00 0.00 0.00 0.00 0.00 0.00 0.00 0.00 0.00 0.00 0.00 0.00 0.00 0.00 0.00 0.00 0.00 0.00 0.00 0.00 0.00 0.00 0.00 0.00 0.00 0.00 0.00 0.00 0.00 0.00 0.00 0.00 0.00 0.00 0.00 0.00 0.00 0.00 0.00 0.00 0.00 0.00 0.00 0.00 0.00 0.00 0.00 0.00 0.00
0.00 0.00 0.00 0.00 0.00 0.00 0.00 0.00 0.00 0.01 0.01 0.01 0.00 0.00 0.00 0.00 0.00 0.00 0.00 0.00 0.00 0.00 0.00 0.00 0.00 0.00 0.00 0.00 0.00 0.00 0.00 0.00 0.00 0.00 0.00 0.00 0.00 0.00 0.00 0.00 0.00 0.00 0.00 0.00 0.00 0.00 0.00 0.00 0.00 0.00 0.00 0.00 0.00 0.00 0.00 0.00 0.00 0.00 0.00 0.00 0.00 0.00 0.00 0.00 0.00 0.00 0.00 0.00 0.00
0.00 0.00 0.00 0.00 0.00 0.00 0.00 0.00 0.01 0.01 0.01 0.01 0.01 0.00 0.00 0.00 0.00 0.00 0.00 0.00 0.00 0.00 0.00 0.00 0.00 0.00 0.00 0.00 0.00 0.00 0.00 0.00 0.00 0.00 0.00 0.00 0.00 0.00 0.00 0.00 0.00 0.00 0.00 0.00 0.00 0.00 0.00 0.00 0.00 0.00 0.00 0.00 0.00 0.00 0.00 0.00 0.00 0.00 0.00 0.00 0.00 0.00 0.00 0.00 0.00 0.00 0.00 0.00 0.00
0.00 0.00 0.00 0.00 0.00 0.00 0.00 0.00 0.01 0.02 0.02 0.02 0.02 0.01 0.00 0.00 0.00 0.00 0.00 0.00 0.00 0.00 0.00 0.00 0.00 0.00 0.00 0.00 0.00 0.00 0.00 0.00 0.00 0.00 0.00 0.00 0.00 0.00 0.00 0.00 0.00 0.00 0.00 0.00 0.00 0.00 0.00 0.00 0.00 0.00 0.00 0.00 0.00 0.00 0.00 0.00 0.00 0.00 0.00 0.00 0.00 0.00 0.00 0.00 0.00 0.00 0.00 0.00 0.00
0.00 0.00 0.00 0.00 0.01 0.00 0.00 0.00 0.01 0.02 0.02 0.03 0.03 0.02 0.01 0.00 0.00 0.00 0.00 0.00 0.00 0.00 0.00 0.00 0.00 0.00 0.00 0.00 0.00 0.00 0.00 0.00 0.00 0.00 0.00 0.00 0.00 0.00 0.00 0.00 0.00 0.00 0.00 0.00 0.00 0.00 0.00 0.00 0.00 0.00 0.00 0.00 0.00 0.00 0.00 0.00 0.00 0.00 0.00 0.00 0.00 0.00 0.00 0.00 0.00 0.00 0.00 0.00 0.00
0.00 0.00 0.00 0.00 0.01 0.01 0.01 0.00 0.01 0.01 0.02 0.04 0.04 0.03 0.01 0.00 0.00 0.00 0.00 0.00 0.00 0.00 0.00 0.00 0.00 0.00 0.00 0.00 0.00 0.00 0.00 0.00 0.00 0.00 0.00 0.00 0.00 0.00 0.00 0.00 0.00 0.00 0.00 0.00 0.00 0.00 0.00 0.00 0.00 0.00 0.00 0.00 0.00 0.00 0.00 0.00 0.00 0.00 0.00 0.00 0.00 0.00 0.00 0.00 0.00 0.00 0.00 0.00 0.00
0.00 0.00 0.00 0.00 0.02 0.02 0.02 0.01 0.01 0.01 0.03 0.04 0.05 0.04 0.03 0.01 0.00 0.00 0.00 0.00 0.00 0.00 0.00 0.00 0.00 0.00 0.00 0.00 0.00 0.00 0.00 0.00 0.00 0.00 0.00 0.00 0.00 0.00 0.00 0.00 0.00 0.00 0.00 0.00 0.00 0.00 0.00 0.00 0.00 0.00 0.00 0.00 0.00 0.00 0.00 0.00 0.00 0.00 0.00 0.00 0.00 0.00 0.00 0.00 0.00 0.00 0.00 0.00 0.00
0.00 0.00 0.00 0.00 0.01 0.03 0.03 0.02 0.02 0.02 0.03 0.04 0.06 0.06 0.05 0.03 0.01 0.00 0.00 0.00 0.00 0.00 0.00 0.00 0.00 0.00 0.00 0.00 0.00 0.00 0.00 0.00 0.00 0.00 0.00 0.00 0.00 0.00 0.00 0.00 0.00 0.00 0.00 0.00 0.00 0.00 0.00 0.00 0.00 0.00 0.00 0.00 0.00 0.00 0.00 0.00 0.00 0.00 0.00 0.00 0.00 0.00 0.00 0.00 0.00 0.00 0.00 0.00 0.00
MSLP
1007.33 1007.45 1007.61 1007.73 1007.81 1007.89 1007.93 1008.01 1008.01 1008.05 1008.17 1008.25 1008.41 1008.53 1008.65 1008.77 1008.85 1008.93 1009.09 1009.21 1009.37 1009.53 1009.69 1009.89 1010.05 1010.25 1010.49 1010.65 1010.81 1010.97 1011.09 1011.29 1011.49 1011.69 1011.89 1012.09 1012.33 1012.53 1012.77 1013.05 1013.29 1013.53 1013.77 1014.01 1014.25 1014.53 1014.77 1015.01 1015.21 1015.45 1015.65 1015.85 1016.01 1016.13 1016.25 1016.33 1016.49 1016.57 1016.61 1016.77 1016.89 1016.97 1017.05 1017.17 1017.29 1017.33 1017.41 1017.45 1017.61
1007.09 1007.25 1007.37 1007.49 1007.61 1007.73 1007.81 1007.85 1007.89 1007.89 1007.93 1008.05 1008.17 1008.33 1008.49 1008.57 1008.61 1008.73 1008.85 1008.97 1009.09 1009.25 1009.45 1009.65 1009.85 1010.05 1010.25 1010.45 1010.61 1010.77 1010.97 1011.17 1011.33 1011.53 1011.77 1011.93 1012.13 1012.33 1012.61 1012.89 1013.13 1013.37 1013.61 1013.81 1014.05 1014.33 1014.61 1014.85 1015.09 1015.33 1015.57 1015.73 1015.89 1016.05 1016.17 1016.29 1016.45 1016.49 1016.57 1016.65 1016.77 1016.89 1017.01 1017.05 1017.17 1017.25 1017.33 1017.37 1017.45
1006.89 1007.05 1007.21 1007.33 1007.45 1007.53 1007.61 1007.65 1007.69 1007.73 1007.77 1007.85 1007.97 1008.09 1008.25 1008.33 1008.45 1008.53 1008.65 1008.77 1008.89 1009.05 1009.17 1009.41 1009.61 1009.77 1010.01 1010.21 1010.45 1010.61 1010.81 1011.01 1011.17 1011.37 1011.61 1011.77 1012.01 1012.21 1012.45 1012.65 1012.93 1013.17 1013.45 1013.65 1013.89 1014.17 1014.41 1014.61 1014.89 1015.17 1015.41 1015.57 1015.73 1015.85 1016.01 1016.17 1016.33 1016.45 1016.49 1016.57 1016.69 1016.81 1016.89 1017.01 1017.05 1017.17 1017.25 1017.33 1017.37
1006.69 1006.89 1007.05 1007.13 1007.21 1007.29 1007.33 1007.41 1007.45 1007.53 1007.61 1007.69 1007.81 1007.93 1008.05 1008.17 1008.25 1008.33 1008.45 1008.57 1008.73 1008.85 1008.93 1009.09 1009.33 1009.57 1009.77 1009.97 1010.21 1010.45 1010.61 1010.81 1010.97 1011.17 1011.37 1011.61 1011.77 1012.01 1012.21 1012.49 1012.73 1013.01 1013.25 1013.49 1013.77 1014.01 1014.21 1014.49 1014.77 1015.01 1015.21 1015.41 1015.57 1015.69 1015.85 1016.05 1016.21 1016.33 1016.41 1016.49 1016.61 1016.73 1016.81 1016.89 1016.97 1017.05 1017.17 1017.21 1017.29
1006.45 1006.61 1006.77 1006.89 1006.97 1007.05 1007.13 1007.21 1007.25 1007.33 1007.45 1007.57 1007.69 1007.77 1007.89 1008.05 1008.17 1008.21 1008.33 1008.49 1008.53 1008.61 1008.73 1008.89 1009.13 1009.33 1009.53 1009.77 1009.97 1010.21 1010.45 1010.61 1010.81 1011.01 1011.21 1011.45 1011.61 1011.81 1012.05 1012.29 1012.53 1012.77 1013.05 1013.33 1013.61 1013.85 1014.09 1014.33 1014.61 1014.85 1015.05 1015.25 1015.41 1015.53 1015.65 1015.85 1016.05 1016.21 1016.33 1016.41 1016.49 1016.61 1016.69 1016.77 1016.89 1016.97 1017.05 1017.13 1017.21
1006.21 1006.37 1006.49 1006.65 1006.77 1006.89 1006.93 1007.05 1007.05 1007.17 1007.29 1007.37 1007.45 1007.53 1007.65 1007.85 1007.93 1008.05 1008.17 1008.25 1008.33 1008.45 1008.57 1008.77 1008.97 1009.17 1009.37 1009.57 1009.77 1010.01 1010.21 1010.49 1010.65 1010.85 1011.05 1011.29 1011.45 1011.61 1011.89 1012.13 1012.33 1012.61 1012.89 1013.17 1013.45 1013.69 1013.93 1014.17 1014.45 1014.69 1014.89 1015.09 1015.29 1015.41 1015.49 1015.69 1015.89 1016.05 1016.21 1016.33 1016.41 1016.49 1016.57 1016.65 1016.77 1016.85 1016.93 1017.05 1017.13
1005.89 1006.09 1006.29 1006.37 1006.53 1006.65 1006.77 1006.85 1006.93 1007.01 1007.05 1007.17 1007.25 1007.33 1007.41 1007.53 1007.69 1007.77 1007.89 1008.01 1008.17 1008.33 1008.49 1008.65 1008.85 1009.05 1009.17 1009.33 1009.57 1009.77 1010.01 1010.21 1010.41 1010.61 1010.85 1011.05 1011.25 1011.45 1011.73 1011.89 1012.17 1012.45 1012.69 1012.97 1013.25 1013.57 1013.81 1014.01 1014.25 1014.49 1014.73 1014.89 1015.13 1015.25 1015.37 1015.49 1015.69 1015.89 1016.05 1016.17 1016.29 1016.37 1016.49 1016.57 1016.61 1016.73 1016.81 1016.89 1016.97
1005.65 1005.85 1005.97 1006.13 1006.29 1006.45 1006.53 1006.65 1006.77 1006.85 1006.89 1006.97 1007.01 1007.05 1007.17 1007.33 1007.45 1007.57 1007.69 1007.81 1007.97 1008.13 1008.29 1008.49 1008.65 1008.85 1009.01 1009.17 1009.33 1009.53 1009.77 1010.01 1010.21 1010.41 1010.65 1010.89 1011.05 1011.29 1011.53 1011.77 1012.05 1012.33 1012.53 1012.77 1013.09 1013.37 1013.65 1013.89 1014.09 1014.33 1014.49 1014.73 1014.89 1015.09 1015.21 1015.33 1015.49 1015.69 1015.89 1016.05 1016.13 1016.25 1016.37 1016.49 1016.61 1016.69 1016.77 1016.81 1016.89
1005.41 1005.57 1005.77 1005.89 1006.05 1006.17 1006.37 1006.49 1006.61 1006.69 1006.73 1006.77 1006.77 1006.89 1006.97 1007.13 1007.25 1007.41 1007.49 1007.61 1007.69 1007.89 1008.05 1008.29 1008.49 1008.65 1008.81 1008.97 1009.13 1009.33 1009.49 1009.77 1009.93 1010.17 1010.41 1010.65 1010.89 1011.13 1011.41 1011.65 1011.89 1012.17 1012.41 1012.61 1012.89 1013.17 1013.45 1013.73 1013.89 1014.09 1014.33 1014.49 1014.69 1014.89 1015.05 1015.21 1015.37 1015.57 1015.77 1015.89 1016.01 1016.13 1016.29 1016.45 1016.57 1016.65 1016.69 1016.77 1016.85
1005.21 1005.41 1005.61 1005.77 1005.89 1006.05 1006.17 1006.33 1006.49 1006.53 1006.57 1006.61 1006.61 1006.73 1006.85 1006.93 1007.05 1007.17 1007.29 1007.37 1007.53 1007.69 1007.85 1008.05 1008.25 1008.49 1008.61 1008.77 1008.93 1009.13 1009.33 1009.57 1009.77 1009.93 1010.21 1010.53 1010.73 1010.97 1011.21 1011.45 1011.73 1011.97 1012.21 1012.49 1012.77 1013.05 1013.29 1013.53 1013.73 1013.89 1014.13 1014.29 1014.49 1014.65 1014.89 1015.09 1015.25 1015.45 1015.61 1015.77 1015.89 1015.97 1016.13 1016.33 1016.49 1016.61 1016.65 1016.69 1016.77
1005.09 1005.25 1005.41 1005.61 1005.73 1005.89 1006.05 1006.17 1006.33 1006.37 1006.45 1006.49 1006.49 1006.61 1006.69 1006.77 1006.89 1007.05 1007.13 1007.25 1007.41 1007.53 1007.65 1007.81 1008.05 1008.25 1008.45 1008.61 1008.77 1008.93 1009.17 1009.33 1009.57 1009.77 1010.05 1010.33 1010.53 1010.77 1011.05 1011.25 1011.53 1011.77 1012.05 1012.33 1012.57 1012.85 1013.13 1013.37 1013.57 1013.77 1013.93 1014.13 1014.33 1014.49 1014.73 1014.97 1015.17 1015.33 1015.49 1015.61 1015.77 1015.89 1016.01 1016.17 1016.33 1016.49 1016.57 1016.61 1016.73
1004.93 1005.09 1005.25 1005.41 1005.61 1005.77 1005.89 1006.05 1006.13 1006.21 1006.29 1006.33 1006.41 1006.49 1006.53 1006.61 1006.73 1006.85 1007.01 1007.13 1007.21 1007.33 1007.45 1007.69 1007.89 1008.05 1008.21 1008.41 1008.61 1008.77 1009.01 1009.21 1009.41 1009.61 1009.89 1010.13 1010.37 1010.61 1010.89 1011.13 1011.37 1011.61 1011.85 1012.13 1012.41 1012.65 1012.93 1013.17 1013.41 1013.61 1013.81 1014.01 1014.17 1014.37 1014.61 1014.81 1015.05 1015.21 1015.41 1015.57 1015.65 1015.77 1015.89 1016.05 1016.17 1016.33 1016.45 1016.53 1016.61
1004.77 1004.93 1005.09 1005.25 1005.45 1005.61 1005.77 1005.89 1006.01 1006.05 1006.17 1006.17 1006.29 1006.33 1006.37 1006.45 1006.53 1006.69 1006.89 1006.97 1007.05 1007.17 1007.33 1007.53 1007.73 1007.89 1008.05 1008.21 1008.45 1008.61 1008.85 1009.09 1009.29 1009.49 1009.73 1009.97 1010.21 1010.49 1010.77 1011.05 1011.25 1011.49 1011.73 1012.01 1012.21 1012.49 1012.77 1013.01 1013.21 1013.45 1013.65 1013.85 1014.01 1014.17 1014.45 1014.65 1014.89 1015.13 1015.29 1015.45 1015.57 1015.69 1015.81 1015.93 1016.05 1016.17 1016.29 1016.37 1016.49
1004.61 1004.77 1004.97 1005.13 1005.29 1005.45 1005.61 1005.77 1005.85 1005.89 1005.97 1006.05 1006.13 1006.17 1006.25 1006.33 1006.41 1006.53 1006.69 1006.81 1006.89 1007.05 1007.17 1007.37 1007.61 1007.77 1007.89 1008.05 1008.25 1008.49 1008.69 1008.93 1009.17 1009.37 1009.61 1009.81 1010.05 1010.33 1010.61 1010.89 1011.13 1011.37 1011.61 1011.89 1012.09 1012.33 1012.57 1012.81 1013.05 1013.33 1013.49 1013.73 1013.89 1014.05 1014.29 1014.57 1014.77 1014.97 1015.17 1015.33 1015.45 1015.61 1015.73 1015.89 1016.01 1016.09 1016.17 1016.29 1016.37
1004.49 1004.65 1004.85 1005.01 1005.17 1005.33 1005.45 1005.61 1005.65 1005.73 1005.81 1005.89 1005.97 1006.05 1006.13 1006.17 1006.29 1006.37 1006.49 1006.61 1006.77 1006.89 1007.05 1007.25 1007.45 1007.61 1007.77 1007.89 1008.09 1008.33 1008.57 1008.77 1009.01 1009.21 1009.45 1009.69 1009.93 1010.17 1010.49 1010.73 1010.97 1011.21 1011.49 1011.77 1011.97 1012.17 1012.45 1012.65 1012.89 1013.17 1013.41 1013.61 1013.77 1013.97 1014.17 1014.45 1014.65 1014.85 1015.05 1015.17 1015.33 1015.49 1015.61 1015.77 1015.89 1016.01 1016.09 1016.17 1016.29
1004.41 1004.57 1004.73 1004.89 1005.05 1005.17 1005.33 1005.45 1005.49 1005.57 1005.61 1005.73 1005.81 1005.89 1005.97 1006.05 1006.13 1006.25 1006.37 1006.49 1006.61 1006.77 1006.89 1007.05 1007.33 1007.49 1007.69 1007.81 1008.01 1008.17 1008.45 1008.65 1008.85 1009.05 1009.33 1009.53 1009.77 1010.05 1010.29 1010.53 1010.77 1011.05 1011.33 1011.61 1011.81 1012.05 1012.29 1012.53 1012.77 1013.05 1013.25 1013.45 1013.69 1013.89 1014.09 1014.33 1014.53 1014.73 1014.89 1015.05 1015.25 1015.37 1015.49 1015.61 1015.77 1015.89 1016.01 1016.05 1016.17
1004.33 1004.49 1004.61 1004.77 1004.89 1005.05 1005.17 1005.25 1005.33 1005.37 1005.45 1005.53 1005.61 1005.73 1005.77 1005.89 1006.05 1006.17 1006.25 1006.37 1006.49 1006.61 1006.77 1006.93 1007.17 1007.33 1007.53 1007.73 1007.89 1008.09 1008.33 1008.49 1008.69 1008.89 1009.09 1009.33 1009.57 1009.81 1010.05 1010.33 1010.61 1010.89 1011.17 1011.41 1011.65 1011.89 1012.17 1012.41 1012.69 1012.93 1013.17 1013.37 1013.61 1013.77 1014.01 1014.21 1014.45 1014.61 1014.77 1014.97 1015.13 1015.25 1015.37 1015.49 1015.61 1015.77 1015.85 1015.93 1016.05
1004.33 1004.37 1004.49 1004.61 1004.73 1004.85 1005.01 1005.09 1005.17 1005.25 1005.33 1005.41 1005.45 1005.57 1005.65 1005.81 1005.89 1006.05 1006.13 1006.25 1006.37 1006.49 1006.61 1006.81 1007.05 1007.17 1007.33 1007.53 1007.73 1007.89 1008.09 1008.29 1008.49 1008.65 1008.89 1009.09 1009.33 1009.61 1009.89 1010.13 1010.41 1010.69 1010.97 1011.21 1011.45 1011.77 1012.01 1012.29 1012.57 1012.81 1013.05 1013.29 1013.49 1013.69 1013.89 1014.09 1014.33 1014.49 1014.65 1014.85 1014.97 1015.13 1015.29 1015.37 1015.49 1015.61 1015.73 1015.81 1015.89
1004.29 1004.29 1004.33 1004.49 1004.53 1004.65 1004.77 1004.89 1005.05 1005.13 1005.17 1005.25 1005.33 1005.41 1005.49 1005.61 1005.77 1005.89 1006.05 1006.17 1006.21 1006.33 1006.49 1006.69 1006.89 1007.05 1007.17 1007.33 1007.49 1007.69 1007.89 1008.05 1008.25 1008.45 1008.69 1008.93 1009.21 1009.49 1009.77 1010.05 1010.29 1010.57 1010.85 1011.13 1011.33 1011.61 1011.89 1012.17 1012.41 1012.69 1012.93 1013.17 1013.37 1013.61 1013.77 1013.97 1014.17 1014.37 1014.53 1014.69 1014.85 1015.01 1015.13 1015.25 1015.37 1015.45 1015.57 1015.65 1015.77
1004.29 1004.21 1004.25 1004.33 1004.37 1004.49 1004.57 1004.69 1004.85 1004.93 1005.05 1005.13 1005.21 1005.29 1005.33 1005.45 1005.57 1005.73 1005.85 1005.97 1006.09 1006.21 1006.33 1006.49 1006.69 1006.89 1007.05 1007.17 1007.33 1007.49 1007.69 1007.89 1008.05 1008.33 1008.57 1008.81 1009.13 1009.41 1009.65 1009.89 1010.17 1010.49 1010.77 1011.01 1011.29 1011.53 1011.77 1012.05 1012.29 1012.57 1012.81 1013.05 1013.25 1013.45 1013.65 1013.85 1014.05 1014.25 1014.41 1014.57 1014.77 1014.89 1014.97 1015.09 1015.25 1015.33 1015.45 1015.53 1015.61
1004.29 1004.17 1004.13 1004.17 1004.25 1004.33 1004.37 1004.49 1004.61 1004.77 1004.89 1004.97 1005.05 1005.17 1005.21 1005.33 1005.41 1005.53 1005.65 1005.81 1006.01 1006.13 1006.21 1006.37 1006.53 1006.69 1006.85 1007.01 1007.17 1007.33 1007.49 1007.69 1007.89 1008.17 1008.41 1008.65 1008.97 1009.25 1009.53 1009.77 1010.05 1010.33 1010.61 1010.89 1011.17 1011.45 1011.69 1011.93 1012.17 1012.45 1012.69 1012.89 1013.09 1013.29 1013.49 1013.73 1013.93 1014.09 1014.29 1014.45 1014.61 1014.73 1014.85 1014.97 1015.09 1015.21 1015.33 1015.45 1015.53
1004.37 1004.17 1004.05 1004.05 1004.09 1004.17 1004.25 1004.33 1004.41 1004.53 1004.69 1004.77 1004.89 1005.01 1005.09 1005.17 1005.29 1005.37 1005.49 1005.73 1005.89 1006.05 1006.13 1006.25 1006.37 1006.53 1006.73 1006.89 1007.05 1007.17 1007.37 1007.61 1007.81 1008.05 1008.21 1008.49 1008.81 1009.13 1009.41 1009.69 1009.93 1010.21 1010.49 1010.77 1011.05 1011.29 1011.53 1011.77 1012.05 1012.29 1012.53 1012.77 1012.97 1013.17 1013.33 1013.57 1013.77 1013.93 1014.09 1014.29 1014.45 1014.61 1014.73 1014.89 1014.97 1015.05 1015.17 1015.29 1015.37
1004.57 1004.25 1004.05 1003.89 1003.93 1004.01 1004.09 1004.17 1004.25 1004.33 1004.49 1004.61 1004.77 1004.89 1004.97 1005.05 1005.13 1005.25 1005.37 1005.57 1005.77 1005.89 1006.05 1006.13 1006.25 1006.41 1006.61 1006.77 1006.93 1007.13 1007.33 1007.49 1007.69 1007.89 1008.13 1008.37 1008.73 1009.01 1009.29 1009.61 1009.85 1010.05 1010.33 1010.57 1010.85 1011.09 1011.37 1011.65 1011.89 1012.17 1012.37 1012.61 1012.81 1013.01 1013.21 1013.45 1013.61 1013.77 1013.93 1014.09 1014.25 1014.45 1014.61 1014.73 1014.85 1014.93 1015.05 1015.17 1015.25
1004.77 1004.45 1004.13 1003.89 1003.77 1003.81 1003.89 1004.05 1004.13 1004.21 1004.33 1004.45 1004.57 1004.69 1004.77 1004.89 1005.01 1005.09 1005.21 1005.41 1005.61 1005.77 1005.89 1006.01 1006.13 1006.33 1006.53 1006.73 1006.89 1007.05 1007.21 1007.37 1007.57 1007.77 1008.01 1008.25 1008.61 1008.89 1009.17 1009.41 1009.65 1009.89 1010.13 1010.33 1010.61 1010.89 1011.13 1011.45 1011.73 1012.01 1012.21 1012.49 1012.65 1012.89 1013.09 1013.33 1013.45 1013.61 1013.81 1013.97 1014.09 1014.29 1014.45 1014.61 1014.69 1014.81 1014.89 1015.05 1015.13
1004.93 1004.61 1004.29 1003.97 1003.73 1003.65 1003.77 1003.89 1003.97 1004.05 1004.17 1004.29 1004.41 1004.53 1004.61 1004.77 1004.85 1004.93 1005.05 1005.25 1005.41 1005.61 1005.77 1005.85 1005.93 1006.13 1006.37 1006.61 1006.81 1006.97 1007.09 1007.21 1007.41 1007.61 1007.85 1008.13 1008.41 1008.65 1008.93 1009.17 1009.45 1009.69 1009.89 1010.13 1010.37 1010.65 1010.89 1011.17 1011.45 1011.77 1012.05 1012.33 1012.53 1012.77 1012.97 1013.17 1013.33 1013.49 1013.69 1013.81 1013.97 1014.13 1014.29 1014.45 1014.57 1014.69 1014.77 1014.89 1015.01
1005.09 1004.81 1004.49 1004.05 1003.77 1003.57 1003.57 1003.69 1003.81 1003.93 1004.05 1004.13 1004.29 1004.37 1004.49 1004.57 1004.65 1004.77 1004.89 1005.05 1005.17 1005.41 1005.57 1005.65 1005.77 1005.97 1006.17 1006.45 1006.61 1006.81 1006.97 1007.13 1007.29 1007.41 1007.61 1007.93 1008.21 1008.49 1008.73 1008.97 1009.17 1009.41 1009.61 1009.89 1010.13 1010.49 1010.77 1011.01 1011.29 1011.53 1011.85 1012.13 1012.37 1012.61 1012.85 1013.05 1013.21 1013.37 1013.57 1013.73 1013.85 1013.97 1014.13 1014.25 1014.33 1014.49 1014.61 1014.73 1014.85
1005.13 1004.93 1004.61 1004.21 1003.85 1003.57 1003.45 1003.45 1003.61 1003.77 1003.89 1004.05 1004.17 1004.25 1004.33 1004.41 1004.49 1004.61 1004.73 1004.85 1005.01 1005.21 1005.41 1005.49 1005.61 1005.77 1006.01 1006.21 1006.41 1006.61 1006.77 1006.97 1007.17 1007.33 1007.45 1007.73 1008.01 1008.25 1008.49 1008.69 1008.89 1009.13 1009.33 1009.61 1009.93 1010.25 1010.57 1010.85 1011.13 1011.41 1011.65 1011.93 1012.21 1012.45 1012.65 1012.89 1013.05 1013.25 1013.45 1013.61 1013.73 1013.85 1013.93 1014.05 1014.13 1014.25 1014.41 1014.49 1014.61
1005.13 1004.97 1004.77 1004.41 1004.05 1003.65 1003.41 1003.33 1003.41 1003.57 1003.77 1003.89 1004.01 1004.13 1004.21 1004.29 1004.33 1004.45 1004.57 1004.69 1004.85 1005.05 1005.17 1005.33 1005.45 1005.61 1005.81 1006.05 1006.17 1006.33 1006.53 1006.77 1007.05 1007.21 1007.41 1007.61 1007.81 1008.05 1008.21 1008.45 1008.65 1008.85 1009.09 1009.37 1009.73 1010.05 1010.37 1010.65 1010.93 1011.21 1011.49 1011.81 1012.05 1012.29 1012.49 1012.77 1012.97 1013.13 1013.29 1013.45 1013.61 1013.69 1013.77 1013.89 1013.97 1014.05 1014.17 1014.29 1014.37
1004.93 1004.89 1004.77 1004.57 1004.21 1003.85 1003.49 1003.33 1003.29 1003.37 1003.53 1003.73 1003.85 1003.97 1004.09 1004.17 1004.17 1004.29 1004.37 1004.53 1004.69 1004.85 1005.01 1005.13 1005.25 1005.45 1005.61 1005.81 1006.01 1006.17 1006.41 1006.65 1006.89 1007.09 1007.33 1007.49 1007.73 1007.89 1008.01 1008.17 1008.37 1008.61 1008.89 1009.17 1009.53 1009.89 1010.17 1010.49 1010.77 1011.05 1011.33 1011.65 1011.89 1012.17 1012.41 1012.61 1012.81 1012.97 1013.13 1013.29 1013.41 1013.53 1013.61 1013.77 1013.85 1013.89 1014.01 1014.05 1014.13
1004.77 1004.73 1004.65 1004.53 1004.33 1004.01 1003.65 1003.37 1003.21 1003.21 1003.33 1003.53 1003.69 1003.81 1003.89 1003.97 1004.05 1004.09 1004.21 1004.33 1004.49 1004.61 1004.77 1004.93 1005.05 1005.17 1005.37 1005.57 1005.81 1006.05 1006.25 1006.49 1006.69 1006.89 1007.13 1007.33 1007.53 1007.73 1007.89 1008.01 1008.17 1008.45 1008.69 1009.01 1009.33 1009.69 1010.01 1010.33 1010.61 1010.89 1011.21 1011.53 1011.77 1012.05 1012.29 1012.49 1012.69 1012.85 1012.97 1013.09 1013.21 1013.33 1013.41 1013.49 1013.61 1013.69 1013.77 1013.77 1013.85
1004.49 1004.49 1004.49 1004.37 1004.25 1004.05 1003.77 1003.49 1003.33 1003.21 1003.25 1003.37 1003.49 1003.61 1003.73 1003.77 1003.85 1003.89 1004.05 1004.17 1004.29 1004.45 1004.61 1004.77 1004.89 1004.97 1005.17 1005.37 1005.61 1005.85 1006.05 1006.25 1006.53 1006.73 1006.89 1007.09 1007.29 1007.45 1007.65 1007.81 1008.05 1008.29 1008.57 1008.85 1009.17 1009.49 1009.85 1010.13 1010.45 1010.77 1011.05 1011.37 1011.65 1011.89 1012.13 1012.33 1012.49 1012.69 1012.77 1012.89 1013.05 1013.13 1013.17 1013.29 1013.37 1013.45 1013.49 1013.53 1013.61
1004.17 1004.21 1004.21 1004.17 1004.09 1003.93 1003.77 1003.61 1003.41 1003.29 1003.25 1003.25 1003.33 1003.45 1003.53 1003.57 1003.61 1003.73 1003.89 1004.01 1004.17 1004.33 1004.49 1004.61 1004.69 1004.81 1004.97 1005.17 1005.41 1005.61 1005.81 1006.05 1006.33 1006.53 1006.73 1006.89 1007.09 1007.33 1007.49 1007.65 1007.89 1008.17 1008.45 1008.69 1009.05 1009.37 1009.69 1010.01 1010.33 1010.61 1010.93 1011.25 1011.53 1011.77 1011.97 1012.17 1012.37 1012.49 1012.61 1012.69 1012.81 1012.89 1013.01 1013.09 1013.17 1013.21 1013.25 1013.33 1013.37
1003.89 1003.89 1003.89 1003.89 1003.85 1003.77 1003.65 1003.49 1003.37 1003.33 1003.29 1003.25 1003.25 1003.29 1003.33 1003.37 1003.45 1003.61 1003.77 1003.89 1004.05 1004.17 1004.29 1004.41 1004.49 1004.61 1004.77 1004.97 1005.13 1005.33 1005.61 1005.89 1006.09 1006.33 1006.57 1006.77 1006.97 1007.17 1007.33 1007.53 1007.77 1008.01 1008.29 1008.61 1008.89 1009.21 1009.57 1009.89 1010.17 1010.49 1010.81 1011.13 1011.41 1011.65 1011.89 1012.05 1012.25 1012.33 1012.45 1012.53 1012.61 1012.73 1012.81 1012.89 1012.97 1013.05 1013.09 1013.17 1013.21
1003.57 1003.53 1003.53 1003.49 1003.53 1003.53 1003.45 1003.37 1003.29 1003.29 1003.29 1003.29 1003.21 1003.17 1003.17 1003.25 1003.33 1003.45 1003.61 1003.77 1003.89 1004.01 1004.09 1004.21 1004.33 1004.41 1004.53 1004.65 1004.85 1005.05 1005.33 1005.61 1005.93 1006.21 1006.45 1006.65 1006.81 1006.97 1007.17 1007.37 1007.61 1007.89 1008.17 1008.49 1008.81 1009.13 1009.45 1009.77 1010.05 1010.33 1010.69 1011.01 1011.33 1011.57 1011.77 1011.93 1012.09 1012.21 1012.33 1012.37 1012.45 1012.53 1012.61 1012.73 1012.81 1012.89 1012.97 1013.05 1013.13
1003.29 1003.21 1003.17 1003.17 1003.17 1003.21 1003.21 1003.17 1003.17 1003.17 1003.21 1003.25 1003.17 1003.13 1003.09 1003.09 1003.17 1003.25 1003.41 1003.61 1003.77 1003.89 1003.97 1004.05 1004.17 1004.29 1004.41 1004.49 1004.61 1004.85 1005.13 1005.41 1005.73 1006.05 1006.29 1006.49 1006.65 1006.85 1007.05 1007.25 1007.53 1007.81 1008.09 1008.41 1008.73 1009.05 1009.33 1009.65 1009.93 1010.25 1010.61 1010.93 1011.17 1011.45 1011.61 1011.77 1011.89 1012.05 1012.13 1012.17 1012.29 1012.37 1012.49 1012.57 1012.65 1012.77 1012.85 1012.93 1013.05
1003.01 1002.93 1002.89 1002.85 1002.81 1002.85 1002.89 1002.89 1002.93 1003.05 1003.09 1003.17 1003.17 1003.13 1003.05 1003.05 1003.05 1003.13 1003.25 1003.45 1003.61 1003.77 1003.85 1003.89 1004.01 1004.13 1004.21 1004.33 1004.45 1004.61 1004.85 1005.09 1005.45 1005.77 1006.09 1006.33 1006.49 1006.65 1006.85 1007.09 1007.37 1007.69 1008.01 1008.33 1008.61 1008.89 1009.21 1009.53 1009.85 1010.13 1010.49 1010.81 1011.09 1011.33 1011.45 1011.61 1011.73 1011.81 1011.93 1012.01 1012.05 1012.17 1012.29 1012.41 1012.53 1012.65 1012.77 1012.89 1013.01
1002.77 1002.65 1002.57 1002.49 1002.45 1002.49 1002.53 1002.57 1002.69 1002.81 1002.89 1003.01 1003.05 1003.09 1003.05 1002.93 1002.89 1002.97 1003.13 1003.29 1003.45 1003.61 1003.69 1003.77 1003.81 1003.89 1003.97 1004.05 1004.17 1004.33 1004.57 1004.85 1005.21 1005.57 1005.85 1006.05 1006.29 1006.49 1006.65 1006.93 1007.25 1007.61 1007.93 1008.21 1008.49 1008.81 1009.13 1009.45 1009.73 1010.05 1010.33 1010.65 1010.89 1011.13 1011.29 1011.45 1011.53 1011.61 1011.69 1011.77 1011.89 1011.97 1012.05 1012.21 1012.37 1012.53 1012.69 1012.81 1012.93
1002.49 1002.41 1002.33 1002.21 1002.17 1002.13 1002.17 1002.17 1002.33 1002.49 1002.65 1002.85 1002.97 1003.05 1003.05 1002.97 1002.89 1002.89 1003.01 1003.13 1003.29 1003.45 1003.53 1003.57 1003.61 1003.65 1003.73 1003.81 1003.97 1004.13 1004.37 1004.65 1005.01 1005.33 1005.61 1005.85 1006.05 1006.25 1006.49 1006.77 1007.09 1007.45 1007.81 1008.13 1008.41 1008.69 1009.05 1009.33 1009.61 1009.89 1010.17 1010.49 1010.73 1010.93 1011.09 1011.21 1011.33 1011.45 1011.53 1011.61 1011.73 1011.81 1011.89 1012.05 1012.21 1012.37 1012.53 1012.69 1012.85
1002.29 1002.21 1002.13 1002.01 1001.89 1001.85 1001.77 1001.81 1001.93 1002.13 1002.41 1002.69 1002.89 1003.05 1003.09 1003.05 1002.89 1002.77 1002.85 1002.97 1003.13 1003.29 1003.37 1003.41 1003.45 1003.49 1003.61 1003.77 1003.89 1004.05 1004.21 1004.49 1004.81 1005.09 1005.37 1005.61 1005.89 1006.09 1006.33 1006.61 1006.93 1007.33 1007.69 1008.01 1008.29 1008.61 1008.89 1009.17 1009.45 1009.77 1010.05 1010.33 1010.53 1010.77 1010.89 1011.05 1011.17 1011.33 1011.41 1011.49 1011.61 1011.73 1011.81 1011.93 1012.13 1012.25 1012.41 1012.57 1012.73
1002.13 1002.05 1001.97 1001.85 1001.73 1001.61 1001.49 1001.45 1001.57 1001.77 1002.13 1002.49 1002.77 1002.97 1003.09 1003.05 1002.89 1002.77 1002.77 1002.89 1003.05 1003.17 1003.25 1003.33 1003.33 1003.41 1003.49 1003.61 1003.73 1003.89 1004.05 1004.33 1004.61 1004.89 1005.17 1005.41 1005.73 1005.93 1006.17 1006.41 1006.77 1007.17 1007.57 1007.89 1008.17 1008.49 1008.77 1009.05 1009.33 1009.65 1009.93 1010.17 1010.37 1010.57 1010.77 1010.89 1011.05 1011.17 1011.29 1011.37 1011.49 1011.61 1011.77 1011.85 1012.05 1012.17 1012.33 1012.45 1012.57
1002.01 1001.93 1001.81 1001.69 1001.53 1001.41 1001.25 1001.17 1001.21 1001.45 1001.89 1002.29 1002.57 1002.81 1003.05 1003.17 1003.09 1002.89 1002.77 1002.81 1002.89 1003.05 1003.17 1003.17 1003.21 1003.29 1003.33 1003.45 1003.61 1003.77 1003.93 1004.17 1004.49 1004.77 1005.01 1005.29 1005.61 1005.85 1006.05 1006.29 1006.61 1007.05 1007.41 1007.77 1008.05 1008.37 1008.65 1008.93 1009.25 1009.53 1009.81 1010.05 1010.25 1010.45 1010.61 1010.77 1010.89 1011.01 1011.13 1011.25 1011.37 1011.49 1011.61 1011.77 1011.89 1012.05 1012.21 1012.33 1012.49
Thickness
5668 5667 5667 5667 5667 5666 5667 5667 5668 5668 5669 5669 5669 5669 5669 5669 5669 5669 5669 5668 5668 5667 5666 5665 5664 5662 5661 5660 5659 5658 5657 5656 5656 5655 5653 5652 5651 5650 5649 5648 5646 5645 5645 5643 5641 5639 5637 5636 5634 5633 5632 5631 5629 5629 5628 5627 5626 5626 5625 5624 5623 5622 5621 5620 5619 5618 5618 5617 5616
5665 5664 5663 5662 5662 5662 5663 5664 5664 5665 5665 5666 5666 5666 5666 5666 5666 5666 5666 5666 5666 5665 5664 5663 5661 5660 5659 5658 5657 5655 5655 5653 5653 5652 5650 5649 5649 5647 5646 5646 5644 5644 5642 5641 5639 5637 5635 5634 5632 5631 5629 5628 5627 5627 5626 5624 5623 5622 5622 5621 5620 5619 5619 5618 5617 5616 5615 5615 5614
5661 5659 5658 5658 5658 5659 5659 5660 5661 5662 5662 5662 5662 5663 5662 5663 5663 5663 5663 5663 5663 5662 5661 5660 5659 5659 5657 5656 5654 5653 5651 5651 5650 5649 5649 5647 5647 5646 5644 5644 5642 5641 5640 5639 5637 5635 5634 5632 5630 5629 5628 5626 5625 5625 5624 5622 5621 5620 5620 5619 5618 5617 5616 5615 5615 5613 5613 5612 5612
5657 5655 5655 5654 5655 5655 5656 5656 5657 5658 5658 5658 5659 5659 5660 5660 5660 5660 5660 5660 5660 5659 5659 5658 5658 5656 5655 5653 5652 5651 5649 5648 5648 5647 5646 5645 5644 5643 5643 5642 5641 5639 5638 5636 5635 5633 5631 5629 5628 5627 5625 5624 5623 5622 5622 5620 5618 5618 5617 5617 5616 5615 5614 5613 5613 5612 5610 5610 5609
5653 5652 5651 5651 5651 5651 5651 5652 5653 5654 5654 5655 5655 5656 5657 5657 5657 5657 5657 5657 5657 5657 5657 5656 5655 5653 5652 5651 5649 5648 5647 5646 5645 5644 5644 5643 5642 5641 5641 5640 5639 5638 5636 5634 5632 5631 5629 5628 5626 5625 5624 5623 5621 5621 5620 5618 5617 5615 5615 5614 5614 5613 5612 5611 5610 5609 5608 5608 5607
5649 5649 5647 5647 5647 5647 5647 5648 5648 5649 5650 5650 5652 5653 5654 5654 5654 5654 5654 5654 5654 5654 5653 5652 5651 5650 5649 5648 5647 5646 5645 5643 5643 5642 5641 5641 5640 5639 5639 5638 5637 5635 5634 5632 5630 5628 5627 5626 5624 5623 5622 5621 5619 5619 5618 5617 5615 5613 5612 5612 5611 5611 5610 5609 5608 5607 5606 5606 5605
5646 5645 5644 5643 5642 5643 5643 5643 5644 5644 5645 5647 5648 5650 5651 5651 5651 5652 5652 5651 5651 5650 5649 5649 5648 5648 5647 5646 5645 5644 5643 5642 5641 5640 5639 5638 5638 5637 5637 5636 5635 5633 5632 5630 5628 5626 5625 5623 5623 5621 5620 5618 5617 5616 5616 5615 5613 5612 5611 5610 5609 5609 5608 5607 5606 5605 5604 5604 5603
5642 5641 5640 5639 5639 5639 5639 5639 5639 5640 5642 5643 5645 5646 5648 5648 5648 5648 5648 5648 5647 5647 5647 5646 5646 5645 5645 5644 5643 5642 5641 5640 5639 5638 5637 5636 5636 5636 5634 5634 5632 5631 5629 5628 5626 5624 5623 5621 5621 5620 5618 5617 5616 5614 5613 5612 5612 5611 5609 5608 5607 5606 5605 5604 5603 5603 5602 5602 5601
5637 5637 5636 5635 5635 5635 5635 5635 5635 5636 5638 5640 5641 5642 5643 5644 5645 5644 5645 5645 5645 5645 5644 5643 5643 5643 5642 5641 5640 5640 5639 5638 5637 5636 5635 5634 5634 5634 5633 5631 5630 5629 5627 5625 5624 5622 5621 5620 5619 5618 5617 5616 5614 5613 5611 5610 5610 5608 5607 5606 5605 5604 5603 5602 5600 5600 5600 5599 5598
5633 5632 5631 5631 5631 5631 5630 5631 5632 5632 5634 5636 5637 5638 5639 5640 5640 5641 5642 5642 5642 5642 5641 5641 5640 5640 5639 5638 5638 5637 5637 5636 5635 5634 5633 5633 5632 5631 5630 5629 5628 5626 5625 5624 5622 5620 5619 5618 5617 5616 5615 5614 5612 5611 5610 5608 5608 5606 5606 5604 5603 5602 5601 5600 5598 5597 5597 5596 5596
5628 5628 5627 5627 5627 5627 5627 5627 5627 5628 5629 5631 5632 5634 5634 5636 5637 5638 5638 5638 5638 5638 5638 5638 5638 5637 5636 5636 5636 5635 5634 5633 5633 5632 5632 5630 5630 5629 5628 5627 5626 5624 5623 5622 5620 5618 5617 5616 5615 5614 5613 5612 5611 5610 5608 5606 5605 5604 5604 5602 5601 5600 5600 5598 5597 5596 5595 5594 5594
5623 5623 5622 5622 5622 5622 5622 5623 5623 5624 5626 5627 5628 5630 5631 5632 5633 5633 5634 5634 5635 5635 5635 5635 5635 5635 5633 5633 5633 5632 5631 5631 5630 5630 5629 5628 5628 5627 5626 5625 5623 5622 5621 5619 5618 5617 5615 5614 5614 5612 5611 5610 5608 5608 5606 5605 5603 5602 5601 5600 5599 5599 5598 5597 5595 5594 5593 5592 5591
5619 5618 5617 5617 5617 5618 5618 5619 5620 5621 5622 5623 5624 5625 5627 5628 5629 5629 5630 5630 5631 5632 5632 5632 5632 5631 5631 5630 5630 5629 5629 5628 5628 5627 5627 5626 5626 5624 5623 5622 5620 5619 5618 5618 5616 5615 5614 5612 5611 5609 5609 5608 5607 5606 5604 5603 5601 5600 5599 5598 5597 5596 5596 5594 5593 5592 5591 5590 5589
5614 5613 5613 5613 5613 5614 5614 5614 5616 5617 5618 5619 5620 5621 5622 5624 5625 5626 5626 5627 5628 5629 5629 5629 5628 5629 5628 5628 5627 5627 5626 5626 5625 5625 5624 5624 5623 5622 5621 5619 5618 5617 5616 5615 5614 5613 5612 5611 5609 5607 5607 5605 5605 5604 5603 5601 5599 5598 5597 5596 5595 5594 5593 5592 5591 5590 5589 5589 5588
5609 5608 5608 5608 5608 5609 5609 5610 5611 5612 5614 5615 5616 5617 5618 5620 5621 5622 5623 5624 5625 5625 5625 5625 5626 5625 5625 5625 5624 5624 5624 5623 5623 5622 5622 5621 5621 5619 5619 5618 5616 5615 5614 5613 5612 5611 5610 5608 5607 5605 5604 5603 5603 5602 5600 5599 5597 5595 5594 5594 5593 5592 5591 5590 5589 5588 5587 5587 5585
5604 5603 5603 5603 5604 5604 5605 5606 5607 5608 5610 5611 5612 5613 5615 5616 5617 5618 5619 5620 5621 5621 5623 5622 5623 5622 5622 5621 5621 5621 5621 5621 5620 5620 5619 5619 5618 5617 5617 5616 5614 5613 5612 5611 5610 5608 5607 5606 5605 5603 5602 5601 5600 5599 5598 5596 5595 5593 5593 5591 5591 5590 5589 5588 5587 5586 5585 5585 5584
5598 5598 5599 5599 5599 5600 5601 5602 5603 5604 5606 5607 5608 5609 5610 5611 5613 5614 5615 5616 5617 5619 5619 5620 5619 5619 5618 5618 5618 5618 5618 5618 5618 5618 5618 5617 5617 5616 5614 5614 5612 5611 5610 5609 5607 5606 5605 5604 5602 5601 5600 5599 5598 5597 5596 5594 5593 5592 5590 5590 5589 5588 5587 5586 5585 5584 5584 5583 5582
5592 5594 5594 5595 5596 5597 5597 5597 5599 5600 5602 5603 5604 5606 5607 5608 5609 5611 5612 5613 5614 5615 5616 5616 5616 5616 5615 5615 5615 5616 5616 5617 5617 5617 5616 5616 5615 5614 5613 5611 5610 5609 5608 5607 5605 5604 5603 5602 5601 5599 5598 5596 5595 5594 5593 5592 5591 5590 5589 5588 5587 5586 5585 5584 5583 5583 5581 5581 5580
5587 5588 5590 5591 5592 5593 5593 5594 5595 5596 5598 5599 5600 5602 5603 5604 5606 5607 5608 5610 5611 5612 5612 5613 5613 5613 5613 5613 5614 5614 5615 5615 5614 5614 5614 5613 5612 5611 5610 5609 5607 5606 5605 5604 5603 5603 5601 5600 5598 5597 5595 5594 5593 5592 5591 5590 5589 5588 5587 5586 5585 5584 5583 5583 5582 5581 5580 5579 5578
5582 5584 5585 5586 5587 5589 5590 5591 5592 5592 5593 5594 5596 5598 5600 5601 5602 5604 5605 5606 5607 5608 5609 5609 5610 5610 5610 5611 5611 5612 5612 5613 5612 5611 5611 5610 5609 5607 5607 5606 5605 5604 5603 5602 5601 5600 5598 5597 5596 5595 5594 5592 5591 5590 5589 5588 5587 5586 5585 5584 5583 5582 5582 5581 5580 5579 5578 5577 5576
5576 5579 5580 5582 5583 5585 5586 5587 5589 5589 5590 5591 5593 5595 5596 5597 5599 5601 5602 5603 5604 5605 5606 5606 5607 5608 5608 5609 5609 5610 5610 5610 5609 5609 5608 5607 5606 5605 5604 5603 5603 5602 5601 5599 5599 5598 5596 5595 5594 5593 5592 5590 5589 5588 5587 5587 5585 5584 5584 5583 5581 5581 5580 5579 5578 5577 5576 5575 5574
5570 5574 5577 5579 5580 5581 5583 5584 5585 5586 5587 5588 5590 5591 5593 5594 5596 5598 5599 5599 5600 5601 5602 5603 5604 5605 5606 5606 5607 5607 5607 5607 5607 5606 5606 5605 5604 5602 5601 5601 5600 5599 5599 5598 5597 5596 5595 5593 5593 5591 5590 5589 5587 5587 5586 5585 5584 5583 5582 5581 5580 5579 5578 5577 5576 5576 5575 5574 5573
5563 5568 5572 5574 5576 5578 5579 5580 5582 5583 5584 5585 5586 5588 5589 5591 5593 5594 5595 5596 5597 5598 5599 5600 5601 5603 5602 5603 5603 5604 5604 5604 5603 5603 5603 5603 5601 5600 5599 5599 5598 5598 5597 5596 5596 5594 5593 5591 5590 5589 5588 5587 5586 5585 5584 5583 5582 5581 5580 5580 5579 5578 5576 5575 5574 5574 5573 5572 5571
5556 5561 5566 5570 5573 5575 5576 5577 5579 5580 5581 5582 5583 5585 5587 5588 5589 5591 5593 5594 5595 5595 5596 5598 5599 5599 5600 5600 5600 5600 5601 5601 5601 5601 5601 5600 5599 5598 5597 5597 5597 5596 5596 5595 5595 5593 5592 5590 5588 5587 5586 5585 5584 5583 5582 5581 5580 5579 5579 5578 5577 5576 5575 5574 5573 5572 5571 5571 5570
5549 5554 5560 5564 5569 5571 5573 5574 5575 5577 5578 5579 5580 5581 5583 5585 5587 5588 5590 5591 5592 5593 5594 5595 5596 5597 5597 5598 5597 5598 5598 5599 5599 5599 5599 5598 5597 5596 5596 5596 5595 5595 5594 5594 5593 5592 5590 5589 5587 5586 5585 5584 5582 5581 5580 5579 5578 5577 5577 5576 5576 5574 5573 5572 5571 5571 5570 5569 5568
5542 5547 5553 5559 5564 5568 5570 5571 5573 5574 5575 5576 5577 5579 5581 5582 5584 5586 5588 5588 5589 5590 5591 5592 5594 5594 5595 5596 5596 5596 5596 5597 5597 5597 5597 5597 5596 5595 5595 5595 5595 5595 5594 5593 5592 5590 5589 5587 5586 5585 5583 5582 5580 5579 5579 5577 5576 5576 5575 5574 5573 5573 5572 5571 5570 5569 5568 5567 5566
5535 5541 5546 5552 5558 5563 5567 5568 5569 5570 5572 5573 5574 5576 5577 5579 5581 5583 5585 5586 5587 5588 5589 5590 5592 5593 5593 5593 5594 5594 5594 5594 5594 5595 5596 5596 5595 5594 5594 5594 5594 5594 5593 5592 5590 5589 5587 5586 5584 5583 5582 5581 5579 5578 5577 5576 5575 5574 5573 5572 5571 5571 5570 5570 5569 5568 5567 5566 5565
5529 5534 5540 5545 5551 5557 5561 5564 5566 5567 5569 5570 5571 5573 5575 5576 5579 5581 5583 5583 5585 5585 5586 5588 5589 5590 5591 5592 5592 5593 5593 5593 5593 5593 5593 5593 5593 5593 5593 5593 5593 5593 5593 5591 5588 5587 5586 5584 5583 5582 5580 5579 5577 5576 5575 5573 5573 5572 5572 5570 5570 5569 5569 5568 5567 5567 5566 5565 5564
5523 5529 5533 5538 5544 5550 5555 5559 5562 5564 5565 5567 5568 5570 5572 5574 5576 5578 5580 5581 5582 5584 5584 5586 5587 5589 5590 5591 5591 5591 5591 5591 5591 5591 5591 5591 5591 5592 5592 5593 5592 5591 5591 5589 5587 5586 5584 5584 5582 5580 5579 5577 5575 5574 5573 5572 5571 5570 5569 5569 5568 5568 5567 5566 5566 5565 5565 5564 5564
5518 5523 5527 5532 5538 5543 5549 5554 5557 5560 5562 5564 5566 5567 5569 5572 5573 5575 5577 5579 5580 5581 5582 5584 5585 5587 5589 5589 5589 5589 5589 5589 5589 5589 5589 5590 5589 5590 5590 5591 5591 5590 5589 5588 5586 5584 5583 5582 5580 5579 5577 5575 5573 5572 5571 5570 5569 5569 5568 5567 5567 5566 5566 5565 5565 5564 5564 5564 5563
5515 5518 5522 5527 5531 5537 5542 5547 5552 5555 5558 5561 5563 5565 5567 5569 5571 5573 5574 5576 5577 5578 5579 5581 5584 5586 5587 5587 5587 5587 5587 5587 5587 5588 5588 5588 5589 5589 5588 5588 5589 5588 5587 5586 5584 5583 5581 5580 5579 5577 5575 5573 5572 5571 5569 5568 5567 5567 5567 5566 5565 5565 5565 5564 5564 5563 5564 5563 5562
5510 5514 5518 5522 5527 5531 5536 5541 5545 5549 5553 5556 5559 5561 5564 5567 5569 5570 5571 5572 5574 5575 5577 5579 5581 5584 5585 5585 5585 5585 5586 5585 5586 5586 5587 5586 5587 5587 5587 5587 5587 5586 5585 5584 5582 5581 5580 5578 5577 5575 5573 5571 5570 5569 5568 5567 5566 5565 5565 5565 5564 5564 5564 5563 5563 5562 5562 5561 5561
5506 5510 5514 5518 5523 5527 5532 5536 5540 5544 5547 5550 5554 5557 5560 5563 5566 5567 5568 5570 5571 5573 5575 5577 5579 5581 5583 5584 5584 5584 5584 5584 5584 5584 5584 5584 5584 5584 5585 5585 5584 5584 5583 5582 5581 5579 5578 5577 5575 5573 5571 5569 5568 5567 5566 5565 5564 5563 5563 5563 5563 5562 5562 5562 5561 5561 5560 5560 5559
5501 5506 5511 5515 5519 5523 5528 5532 5536 5539 5542 5545 5549 5553 5556 5559 5562 5564 5566 5567 5568 5570 5572 5574 5577 5579 5581 5582 5583 5582 5582 5582 5582 5581 5581 5581 5582 5582 5583 5582 5582 5582 5581 5580 5579 5578 5576 5574 5573 5571 5569 5567 5566 5564 5564 5563 5563 5561 5561 5562 5561 5561 5561 5561 5560 5559 5558 5558 5557
5497 5502 5508 5513 5517 5520 5525 5529 5532 5535 5538 5541 5544 5548 5551 5555 5558 5560 5562 5564 5566 5567 5569 5571 5573 5575 5577 5579 5580 5580 5580 5580 5580 5579 5579 5579 5579 5580 5581 5581 5581 5580 5579 5578 5577 5576 5574 5572 5571 5569 5568 5565 5564 5563 5562 5562 5561 5561 5560 5560 5560 5559 5559 5559 5558 5557 5556 5555 5555
5493 5499 5504 5510 5514 5518 5523 5526 5529 5532 5534 5538 5540 5543 5547 5551 5554 5557 5560 5562 5564 5566 5567 5569 5570 5572 5575 5577 5578 5578 5579 5579 5578 5578 5577 5577 5577 5579 5579 5579 5579 5578 5577 5576 5575 5574 5572 5570 5569 5567 5565 5563 5562 5561 5560 5560 5560 5559 5559 5559 5559 5558 5558 5557 5557 5556 5555 5553 5552
5490 5495 5501 5507 5512 5516 5521 5524 5527 5530 5532 5535 5538 5540 5543 5547 5550 5554 5556 5559 5562 5563 5566 5568 5569 5571 5573 5575 5577 5578 5578 5578 5577 5576 5575 5575 5576 5577 5577 5578 5577 5576 5575 5574 5573 5572 5570 5569 5567 5565 5564 5562 5560 5560 5559 5559 5558 5558 5558 5558 5557 5557 5557 5556 5555 5554 5552 5551 5550
5489 5492 5498 5504 5509 5514 5519 5523 5525 5528 5530 5531 5534 5537 5539 5543 5547 5551 5554 5556 5559 5561 5563 5566 5568 5570 5571 5573 5575 5576 5576 5576 5575 5575 5574 5574 5574 5575 5576 5576 5575 5574 5573 5572 5572 5570 5568 5567 5565 5564 5562 5561 5560 5559 5558 5557 5557 5557 5556 5556 5556 5556 5555 5554 5553 5552 5551 5549 5548
5486 5490 5494 5500 5506 5511 5517 5522 5524 5527 5528 5529 5530 5533 5535 5539 5543 5547 5551 5553 5555 5558 5561 5563 5566 5567 5569 5570 5572 5573 5574 5574 5574 5573 5573 5573 5573 5573 5574 5574 5574 5572 5571 5570 5569 5568 5567 5565 5563 5562 5560 5559 5558 5557 5557 5556 5556 5555 5555 5554 5554 5554 5553 5552 5551 5550 5549 5547 5546
5484 5487 5491 5497 5502 5509 5515 5520 5524 5526 5526 5526 5527 5529 5531 5534 5539 5543 5547 5550 5552 5555 5557 5560 5563 5565 5566 5567 5569 5571 5572 5572 5572 5572 5572 5572 5571 5572 5572 5573 5572 5570 5569 5568 5568 5566 5565 5563 5561 5560 5559 5558 5557 5556 5555 5555 5554 5553 5552 5552 5552 5552 5551 5550 5549 5548 5547 5546 5544
5482 5484 5488 5494 5499 5506 5512 5519 5522 5524 5524 5524 5525 5526 5528 5530 5533 5538 5542 5545 5549 5552 5554 5557 5560 5562 5564 5565 5566 5568 5570 5570 5570 5570 5569 5570 5569 5570 5570 5571 5570 5569 5567 5566 5565 5564 5563 5561 5559 5558 5557 5556 5555 5554 5554 5553 5552 5552 5551 5550 5550 5550 5549 5548 5547 5546 5545 5544 5543